SCP
0 0 -0 -0 -0 -0 -0 -0 -0 -0 0 0 0 0 0 0 -0 -0 0 -0 0 -0 -0 0 0 0 0 0 0 0 -0 0 -0 -0 -0 -0 -0 -0 -0 -0 -0 -0 -0 -0 -0 0 -0 -0 -0
0 0 -0 0 0 0 -0 0 0 -0 -0 0 0 0 0 0 -0 -0 0 0 0 -0 0 0 0 0 -0 -0 0 -0 0 -0 -0 -0 -0 -0 -0 -0 -0 -0 -0 -0 -0 -0 -0 -0 -0 -0 -0
0 0 0 0 0 0 0 -0 0 -0 0 0 0 0 0 -0 -0 -0 -0 -0 -0 -0 0 -0 0 0 0 0 -0 -0 -0 -0 -0 -0 -0 -0 -0 -0 -0 -0 -0 -0 -0 -0 -0 -0 -0 -0 -0
0 0 0 0 0 0 0 0 -0 -0 0 0 0 0 0 -0 -0 0 -0 -0 -0 0 0 -0 0 0 0 0 0 0 -0 -0 -0 -0 -0 -0 -0 0 0 0 -0 -0 -0 -0 -0 -0 -0 -0 -0
0 0 0 0 0 0 0 0 -0 -0 0 0 0 0 0 0 -0 -0 -0 -0 -0 0 0 -0 0 0 0 -0 -0 -0 -0 -0 -0 -0 -0 -0 -0 0 0 0 -0 -0 -0 -0 -0 -0 -0 -0 -0
0 0 0 0 0 0 0 0 0 0 0 0 0 -0 0 0 -0 -0 -0 -0 0 0 0 0 0 0 0 -0 -0 -0 0 -0 -0 -0 -0 -0 -0 0 0 -0 -0 -0 -0 -0 -0 -0 -0 -0 -0
0 0 0 0 0 0 0 0 0 -0 0 0 0 -0 -0 -0 -0 -0 -0 0 0 0 0 0 0 0 0 0 -0 -0 -0 -0 0 -0 -0 -0 0 -0 -0 0 -0 -0 -0 -0 -0 -0 -0 -0 -0
0 0 0 0 0 0 0 0 0 0 0 0 0 -0 0 -0 -0 -0 -0 0 0 -0 -0 0 0 0 0 0 0 -0 -0 0 0 0 0 0 -0 0 0 -0 -0 -0 -0 -0 -0 -0 -0 -0 -0
0 0 0 0 0 0 0 -0 0 0 0 0 0 0 0 -0 -0 -0 -0 -0 0 -0 -0 0 0 0 0 0 0 -0 -0 0 0 0 0 0 0 0 -0 -0 -0 -0 -0 -0 -0 -0 -0 -0 0
0 0 0 0 0 0 0 0 0 0 0 0 0 0 0 -0 -0 -0 -0 -0 -0 0 0 0 -0 0 0 0 0 0 0 0 0 0 0 0 0 0 0 -0 -0 -0 -0 -0 -0 -0 0 0 0
0 0 0 0 0 0 0 0 0 0 0 0 0 0 0 0 -0 -0 -0 -0 -0 -0 0 -0 0 0 0 0 0 0 0 0 0 0 0 0 0 0 -0 -0 -0 -0 0 0 0 0 0 0 0
0 0 0 0 0 0 0 0 0 0 0 0 0 0 0 0 0 -0 -0 -0 -0 0 -0 0 0 0 0 0 0 0 0 0 0 0 0 0 0 0 0 0 -0 0 0 0 0 0 0 0 0
0 0 0 0 0 0 0 0 0 0 0 0 0 0 0 0 0 0 0 0 0 0 0 0 0 0 0 0 0 0 0 0 0 0 0 0 0 0 0 0 0 0 0 0 0 0 0 0 0
0 0 0 0 0 0 0 0 0 -0 0 0 0 0 0 0 0 0 0 0 0 -0 0 0 0 0 0 0 0 0 0 0 0 0 0 0 0 0 0 0 0 0 0 0 0 0 0 0 0
0 0 0 0 0 0 0 0 0 0 0 0 0 0 0 0 0 0 0 0 0 0 0 0 0 0 0 0 0 0 0 0 0 0 0 0 0 0 0 0 0 0 0 0 0 0 0 0 0
0 0 0 0 0 0 0 0 0 0 0 0 0 0 0 0 0 0 0 0 0 0 0 0 0 0 0 0 0 0 0 0 0 0 0 0 0 0 0 0 0 0 0 0 0 0 0 0 0
0 0 0 0 0 0 0 0 0 0 0 0 0 0 0 0 0 0 0 0 0 0 0 0 0 0 0 0 0 0 0 0 0 0 0 0 0 0 0 0 0 0 0 0 0 0 0 0 0
0 0 0 0 0 0 0 0 0 0 0 0 0 0 0 0 0 0 0 0 0 0 0 0 0 0 0 0 0 0 0 0 0 0 0 0 0 0 0 0 0 0 0 0 0 0 0 0 0
0 0 0 0 0 0 0 0 0 0 0 0 0 0 0 0 0 0 0 0 0 0 0 0 0 0 0 0 0 0 0 0 0 0 0 0 0 0 0 0 0 0 0 0 0 0 0 0 0
0 0 0 0 0 0 0 0 0 0 0 0 0 0 0 0 0 0 0 0 0 0 0 0 0 0 0 0 0 0 0 0 0 0 0 0 0 0 0 0 0 0 0 0 0 0 0 0 0
0 0 0 0 0 0 0 0 0 0 0 0 0 0 0 -0 -0 -0 0 0 0 0 0 0 0 0 0 0 0 0 0 0 0 0 0 0 0 0 0 0 0 0 0 0 0 0 0 0 0
0 0 0 0 0 0 -0 -0 0 0 0 0 0 0 0 -0 -0 0 0 0 0 0 0 0 0 0 0 0 0 0 0 0 0 0 0 0 0 0 0 0 0 0 0 0 0 0 0 0 0
0 0 0 0 0 0 0 0 -0 0 0 0 0 0 0 0 -0 0 0 0 0 0 0 0 0 0 0 0 0 0 0 0 0 0 0 0 0 0 0 0 0 0 0 0 0 0 0 0 0
0 0 0 0 0 0 0 0 -0 0 0 0 0 0 0 0 0 0 0 0 0 -0 0 0 -0 -0 0 0 0 0 0 0 0 0 0 0 0 0 0 0 0 0 0 0 0 0 0 0 0
0 0 0 0 0 0 0 0 0 0 -0 0 0 0 0 0 0 0 0 0 0 0 0 0 0 0 0 0 0 0 0 0 0 0 0 0 0 0 0 0 0 0 0 0 0 0 0 0 0
0 0 0 0 0 0 0 0 0 -0 0 0 0 0 0 0 0 0 0 0 0 0 0 0 0 0 0 0 0 0 0 0 0 0 0 0 0 0 0 0 0 0 0 0 0 0 0 0 0
0 0 0 0 0 0 0 0 0 0 0 0 0 0 0 0 0 -0 0 0 0 0 0 0 0 0 0 0 0 0 0 0 0 0 0 0 0 0 0 0 0 0 0 0 0 0 0 0 0
0 0 0 0 0 0 0 0 -0 -0 -0 0 0 0 0 0 0 0 0 0 0 0 0 0 0 0 0 0 0 0 0 0 0 0 0 0 0 0 0 0 0 0 0 0 0 0 0 0 0
0 0 0 0 0 0 0 0 0 0 0 0 -0 0 0 0 0 0 0 0 0 0 0 0 0 0 0 0 0 0 0 0 0 0 0 0 0 0 0 0 0 0 0 0 0 0 0 0 0
0 0 0 0 0 0 0 0 0 -0 -0 0 0 0 0 0 0 0 0 0 -0 0 0 0 0 0 0 0 0 0 0 0 0 0 0 0 0 0 0 0 0 0 0 0 0 0 0 0 0
Wind_Speed_500mb
33 28 23 9 4 3 5 4 2 9 9 2 7 5 3 7 8 6 24 41 40 33 30 28 25 24 23 20 15 12 11 10 7 7 9 11 18 25 31 33 27 30 29 26 30 32 32 34 33
33 28 13 5 4 5 8 4 8 8 4 12 6 2 3 4 5 11 36 39 41 32 30 26 24 23 21 19 18 13 6 5 5 9 14 16 21 28 32 29 24 30 26 28 30 31 32 34 36
29 23 8 4 2 6 6 1 6 11 14 6 5 1 1 2 3 30 28 46 42 35 26 23 22 20 21 20 18 9 5 3 6 12 16 18 26 31 30 25 26 29 24 26 30 31 33 33 33
32 11 4 5 2 4 3 4 10 20 6 4 3 5 1 8 12 23 39 48 44 36 26 21 20 20 20 21 18 9 4 3 8 14 19 20 22 26 28 26 20 28 23 28 29 29 30 30 30
24 7 5 4 2 2 1 1 16 19 6 6 8 4 3 7 22 32 45 48 43 33 25 21 22 22 22 20 14 10 7 10 11 17 22 23 22 22 26 27 21 25 24 26 26 27 27 27 24
9 7 10 11 6 2 1 9 15 16 7 7 7 7 6 15 18 38 44 45 37 25 22 21 22 23 25 20 18 14 13 15 11 16 20 21 19 19 19 21 19 23 24 23 25 25 24 22 19
1 5 8 8 12 10 4 16 14 15 11 12 5 8 6 25 26 34 48 44 35 27 22 19 23 24 24 24 22 17 18 23 16 14 19 23 21 18 17 18 17 18 20 20 21 21 19 16 14
8 3 6 6 14 17 5 13 5 16 12 8 14 9 6 24 34 38 48 45 37 32 26 23 23 26 28 29 28 24 25 28 25 21 21 21 21 18 14 12 13 14 17 18 18 16 14 11 9
19 9 15 11 9 12 2 8 6 9 10 13 17 10 11 24 39 49 53 46 41 40 34 28 26 26 27 29 30 29 32 35 28 26 14 15 19 19 17 14 11 13 15 16 15 13 10 8 5
12 13 31 8 8 11 14 5 9 10 16 17 19 28 21 27 44 57 61 57 51 45 41 33 29 27 26 29 29 29 30 29 28 26 24 21 21 19 14 12 11 11 13 13 12 9 6 4 3
14 20 16 13 8 13 11 11 7 17 17 31 29 28 33 34 47 57 61 58 54 46 42 36 32 29 27 28 31 31 29 28 28 26 23 24 21 18 17 15 13 13 14 13 11 9 6 6 7
12 16 19 12 12 4 11 19 13 24 42 15 17 21 35 40 51 57 61 60 55 49 42 36 35 32 30 30 30 31 31 30 29 28 25 25 22 21 20 19 17 16 15 14 13 10 10 11 11
20 18 25 23 18 15 14 25 25 33 37 38 29 24 34 39 47 52 56 57 55 51 46 42 39 37 36 35 34 33 31 30 28 28 28 28 26 23 23 23 22 21 19 17 14 14 14 15 15
21 30 29 22 20 21 11 23 9 21 17 33 41 29 34 39 45 49 58 58 58 54 50 46 44 41 40 38 37 35 33 30 31 32 31 30 28 26 24 24 25 24 21 20 19 19 19 19 19
14 16 22 31 27 14 17 21 30 43 30 29 33 31 33 39 44 51 49 56 57 60 54 50 47 46 45 42 39 38 36 34 34 33 34 33 31 28 27 28 26 24 24 24 24 23 23 24 24
18 13 25 15 35 15 21 42 36 19 26 39 34 35 34 41 48 47 46 50 55 59 59 54 50 49 46 47 45 42 40 39 39 39 39 36 34 33 32 28 25 26 27 27 27 27 27 27 28
22 26 35 20 31 16 26 29 36 26 25 37 38 36 35 35 44 50 51 51 56 59 58 57 54 53 49 49 48 46 44 45 44 44 43 41 40 37 33 31 29 30 31 31 31 31 31 31 32
31 34 22 27 19 27 26 42 27 23 15 22 35 35 34 37 51 48 54 54 55 59 62 60 60 58 54 50 51 50 51 52 51 47 47 43 43 42 40 37 35 35 37 37 36 35 36 36 37
19 31 26 22 15 17 32 42 43 43 35 38 46 42 42 47 42 45 52 56 59 61 65 67 67 64 62 62 61 59 59 55 51 50 48 48 48 47 46 44 42 43 45 43 42 42 43 44 43
24 23 27 14 12 19 26 35 41 46 51 47 47 49 53 45 45 52 54 59 66 65 67 68 70 69 70 70 67 62 58 56 55 53 52 50 50 49 50 49 48 49 49 50 49 50 50 50 49
32 38 25 20 7 18 22 41 50 43 59 59 55 56 55 54 57 52 58 65 65 71 73 74 72 72 74 72 70 68 66 67 66 66 62 58 54 53 52 53 54 54 54 54 55 54 54 55 51
37 36 16 15 13 20 22 19 33 31 42 52 67 56 64 63 63 71 58 66 71 74 73 77 75 74 75 76 78 78 76 75 70 67 63 59 58 58 58 56 57 58 59 59 58 59 59 60 64
27 23 33 34 30 22 26 17 25 33 39 46 53 57 65 66 66 76 82 79 80 75 81 77 77 77 75 79 81 82 81 76 73 70 66 62 58 55 57 57 57 59 59 60 61 63 64 65 68
17 6 13 26 28 29 55 36 33 39 36 35 47 56 62 66 72 78 79 82 85 83 82 83 83 82 80 79 78 82 80 78 80 75 72 63 59 58 54 53 51 50 50 52 53 53 57 61 63
32 27 9 14 14 19 34 33 52 15 42 38 44 59 56 59 57 70 81 82 87 83 83 87 90 91 90 89 87 83 81 76 77 73 68 63 61 56 50 48 46 46 47 48 48 50 51 52 53
43 41 12 24 12 36 19 21 38 37 66 68 47 47 53 50 53 66 70 79 85 88 91 90 93 95 91 87 89 88 83 83 78 73 69 64 61 56 51 48 48 51 50 50 52 53 51 47 49
18 36 48 16 0 9 16 40 45 10 18 37 59 55 65 63 56 68 72 73 75 80 91 94 100 102 96 90 84 82 85 84 81 74 73 70 65 62 56 54 55 52 53 53 53 54 51 51 54
36 12 22 16 17 21 17 44 30 30 41 33 28 48 66 71 82 83 73 71 77 75 64 81 90 99 105 101 93 85 81 77 73 74 75 73 70 65 61 59 57 57 55 53 52 55 52 52 53
31 32 17 8 27 20 34 31 38 37 29 35 42 70 81 83 86 79 83 91 69 70 58 70 78 86 94 101 97 90 82 74 68 69 70 70 65 63 61 59 57 55 55 55 54 54 48 50 51
38 36 42 19 18 12 30 48 5 24 37 45 60 80 88 84 73 76 82 81 76 83 79 77 76 77 76 85 90 86 80 74 71 70 66 63 61 59 57 56 53 54 51 47 45 46 47 49 50
Wind_Direction_500mb
345 348 343 353 251 279 93 132 357 152 159 100 138 215 333 360 351 27 152 165 161 161 158 151 151 152 153 152 152 147 125 122 98 74 81 107 115 115 108 104 107 95 102 91 94 99 95 97 95
347 347 348 358 309 344 64 134 191 144 97 127 138 176 248 60 53 148 150 164 163 163 159 161 159 162 164 161 157 145 123 92 100 94 104 114 120 115 112 112 109 102 104 99 97 99 97 94 92
348 343 333 44 49 34 26 189 142 132 131 161 160 350 35 19 159 156 165 166 167 165 168 168 169 176 173 166 160 163 136 86 90 107 117 120 121 117 118 119 103 108 111 101 96 95 94 96 96
349 343 40 294 359 103 31 19 153 152 190 191 168 198 268 184 161 167 168 167 166 168 170 177 175 176 174 167 170 186 180 146 126 130 130 123 126 129 127 120 119 112 110 95 96 101 101 96 92
355 332 305 283 351 85 239 247 172 178 155 190 192 186 205 210 182 178 175 173 170 171 176 177 176 176 177 180 189 198 170 155 129 135 138 135 134 130 129 122 118 114 111 105 106 103 102 102 102
341 331 260 271 311 357 296 166 168 192 190 172 212 197 191 196 174 179 182 174 173 182 185 181 180 185 188 194 191 189 151 154 130 131 140 139 131 127 124 126 119 119 123 112 109 109 107 103 102
42 321 290 285 291 294 61 152 198 200 201 210 198 216 210 195 180 187 183 181 181 188 191 196 186 189 187 184 192 181 159 161 159 140 146 144 136 128 126 128 130 127 121 119 113 109 111 113 107
121 287 265 253 284 286 113 177 189 210 235 207 190 231 217 201 183 179 179 185 191 194 199 201 190 187 185 192 196 182 183 173 168 167 162 161 149 137 127 124 127 124 124 125 122 120 118 119 117
166 215 254 251 242 285 32 227 187 224 210 199 204 223 219 189 184 179 182 191 197 199 199 200 194 192 193 191 202 204 189 190 183 196 196 167 160 154 153 150 140 139 142 138 131 128 126 130 133
175 197 231 220 286 295 308 280 302 232 222 228 227 226 218 196 193 189 190 194 199 199 200 199 197 196 199 201 196 201 198 186 187 197 206 190 173 171 164 155 157 157 154 152 150 151 155 170 208
168 227 193 153 134 350 317 298 258 257 237 245 239 220 216 203 199 200 199 200 201 199 201 203 199 198 199 202 196 199 202 197 194 198 193 189 188 183 182 179 179 181 178 177 178 187 204 230 245
195 199 186 213 199 241 290 305 271 246 256 261 252 219 220 211 206 205 206 207 204 205 203 205 205 201 201 199 205 204 206 207 208 204 200 195 198 198 196 193 196 202 202 201 207 218 236 253 263
229 206 216 228 239 224 260 260 282 271 268 255 268 235 222 219 214 212 213 215 209 209 205 209 209 206 205 203 204 207 209 210 210 209 204 203 201 203 203 204 207 211 213 218 228 244 257 265 269
213 221 219 220 232 253 199 263 287 264 298 244 245 241 225 223 220 214 217 219 217 213 213 212 211 211 212 209 208 210 210 211 211 210 210 210 210 210 211 213 216 220 223 228 234 246 258 267 273
218 207 232 232 239 246 221 240 240 261 264 261 241 232 229 226 221 224 224 221 217 217 216 219 218 216 216 214 212 214 216 214 215 215 214 213 213 216 217 220 223 226 230 235 241 252 261 268 274
211 233 231 223 210 203 246 255 248 243 249 254 245 235 233 229 232 228 225 223 219 218 219 221 223 225 225 221 218 218 220 220 221 219 219 218 218 219 223 227 227 230 234 239 246 253 261 267 272
208 234 225 227 207 183 211 256 247 225 232 251 246 237 232 232 232 230 225 222 221 221 220 223 225 227 228 228 226 225 226 227 227 226 224 222 225 227 229 231 234 238 241 244 249 256 262 268 274
208 228 221 219 196 206 215 250 243 222 196 248 255 250 240 237 244 239 230 226 223 223 224 225 227 228 229 231 230 230 230 230 232 230 230 230 230 232 235 237 238 243 248 251 254 260 267 270 274
284 222 237 220 193 208 238 247 249 253 248 247 252 253 247 242 246 243 238 232 228 226 226 226 227 228 229 230 230 230 232 233 236 235 234 234 234 236 239 242 244 246 251 257 260 263 265 272 278
225 233 225 229 193 227 252 251 260 252 249 243 248 254 252 253 250 245 243 237 234 232 230 229 230 229 230 232 234 236 241 242 243 243 242 241 243 243 244 247 250 251 255 258 261 264 269 273 273
221 230 227 246 199 252 270 265 258 250 247 244 240 244 253 251 249 246 250 246 241 237 233 230 230 230 232 233 236 237 239 241 241 241 242 242 243 246 248 250 253 256 259 261 264 265 268 271 272
221 212 239 242 232 250 195 276 247 246 231 236 239 231 244 248 248 252 242 245 244 243 238 235 232 232 233 233 234 236 239 242 245 246 249 248 247 249 251 255 257 258 262 264 266 269 269 269 269
235 216 222 235 246 269 241 265 264 240 236 236 231 230 237 241 242 249 251 248 244 242 241 240 237 234 233 234 236 237 240 244 246 249 249 248 250 250 252 254 256 259 263 266 266 267 269 268 270
166 128 219 235 239 244 244 239 250 234 234 244 240 236 237 237 237 246 250 249 246 242 236 236 238 238 237 237 238 238 241 242 243 246 250 251 249 248 248 253 256 260 261 264 267 268 268 269 271
207 201 227 224 224 244 230 232 238 260 231 241 247 248 241 242 236 243 245 245 241 241 237 234 233 236 240 242 241 241 242 243 245 247 249 251 251 250 250 251 254 258 262 264 265 265 268 268 269
205 199 201 218 217 234 161 228 242 233 250 251 249 254 255 253 245 247 249 248 249 244 240 237 237 237 237 240 240 242 241 241 243 244 248 250 250 250 250 253 256 259 261 263 263 263 264 265 267
185 216 231 279 88 287 220 245 265 219 247 233 243 248 252 252 252 253 252 252 255 253 245 243 241 240 237 238 239 241 237 239 241 244 246 248 249 250 253 257 259 261 259 258 259 261 261 263 265
238 179 217 216 204 230 225 242 244 197 217 227 241 252 260 260 257 251 255 257 257 255 250 244 243 242 240 240 239 239 238 237 242 244 244 244 246 249 252 255 257 257 257 257 257 259 260 262 266
212 228 221 261 230 239 252 251 247 244 226 229 233 241 248 254 255 256 257 262 260 243 258 253 245 243 237 236 237 234 233 235 238 239 241 242 244 246 248 250 252 255 256 256 256 258 260 257 260
231 226 223 256 237 232 250 261 125 226 233 225 226 228 240 244 254 260 260 261 266 260 264 248 242 239 236 234 234 231 230 231 234 238 240 239 239 240 242 244 247 250 253 258 256 258 258 260 262
Wind_Speed_850mb
33 28 23 9 4 3 5 4 2 9 9 2 7 5 3 7 8 6 24 41 40 33 30 28 25 24 23 20 15 12 11 10 7 7 9 11 18 25 31 33 27 30 29 26 30 32 32 34 33
33 28 13 5 4 5 8 4 8 8 4 12 6 2 3 4 5 11 36 39 41 32 30 26 24 23 21 19 18 13 6 5 5 9 14 16 21 28 32 29 24 30 26 28 30 31 32 34 36
29 23 8 4 2 6 6 1 6 11 14 6 5 1 1 2 3 30 28 46 42 35 26 23 22 20 21 20 18 9 5 3 6 12 16 18 26 31 30 25 26 29 24 26 30 31 33 33 33
32 11 4 5 2 4 3 4 10 20 6 4 3 5 1 8 12 23 39 48 44 36 26 21 20 20 20 21 18 9 4 3 8 14 19 20 22 26 28 26 20 28 23 28 29 29 30 30 30
24 7 5 4 2 2 1 1 16 19 6 6 8 4 3 7 22 32 45 48 43 33 25 21 22 22 22 20 14 10 7 10 11 17 22 23 22 22 26 27 21 25 24 26 26 27 27 27 24
9 7 10 11 6 2 1 9 15 16 7 7 7 7 6 15 18 38 44 45 37 25 22 21 22 23 25 20 18 14 13 15 11 16 20 21 19 19 19 21 19 23 24 23 25 25 24 22 19
1 5 8 8 12 10 4 16 14 15 11 12 5 8 6 25 26 34 48 44 35 27 22 19 23 24 24 24 22 17 18 23 16 14 19 23 21 18 17 18 17 18 20 20 21 21 19 16 14
8 3 6 6 14 17 5 13 5 16 12 8 14 9 6 24 34 38 48 45 37 32 26 23 23 26 28 29 28 24 25 28 25 21 21 21 21 18 14 12 13 14 17 18 18 16 14 11 9
19 9 15 11 9 12 2 8 6 9 10 13 17 10 11 24 39 49 53 46 41 40 34 28 26 26 27 29 30 29 32 35 28 26 14 15 19 19 17 14 11 13 15 16 15 13 10 8 5
12 13 31 8 8 11 14 5 9 10 16 17 19 28 21 27 44 57 61 57 51 45 41 33 29 27 26 29 29 29 30 29 28 26 24 21 21 19 14 12 11 11 13 13 12 9 6 4 3
14 20 16 13 8 13 11 11 7 17 17 31 29 28 33 34 47 57 61 58 54 46 42 36 32 29 27 28 31 31 29 28 28 26 23 24 21 18 17 15 13 13 14 13 11 9 6 6 7
12 16 19 12 12 4 11 19 13 24 42 15 17 21 35 40 51 57 61 60 55 49 42 36 35 32 30 30 30 31 31 30 29 28 25 25 22 21 20 19 17 16 15 14 13 10 10 11 11
20 18 25 23 18 15 14 25 25 33 37 38 29 24 34 39 47 52 56 57 55 51 46 42 39 37 36 35 34 33 31 30 28 28 28 28 26 23 23 23 22 21 19 17 14 14 14 15 15
21 30 29 22 20 21 11 23 9 21 17 33 41 29 34 39 45 49 58 58 58 54 50 46 44 41 40 38 37 35 33 30 31 32 31 30 28 26 24 24 25 24 21 20 19 19 19 19 19
14 16 22 31 27 14 17 21 30 43 30 29 33 31 33 39 44 51 49 56 57 60 54 50 47 46 45 42 39 38 36 34 34 33 34 33 31 28 27 28 26 24 24 24 24 23 23 24 24
18 13 25 15 35 15 21 42 36 19 26 39 34 35 34 41 48 47 46 50 55 59 59 54 50 49 46 47 45 42 40 39 39 39 39 36 34 33 32 28 25 26 27 27 27 27 27 27 28
22 26 35 20 31 16 26 29 36 26 25 37 38 36 35 35 44 50 51 51 56 59 58 57 54 53 49 49 48 46 44 45 44 44 43 41 40 37 33 31 29 30 31 31 31 31 31 31 32
31 34 22 27 19 27 26 42 27 23 15 22 35 35 34 37 51 48 54 54 55 59 62 60 60 58 54 50 51 50 51 52 51 47 47 43 43 42 40 37 35 35 37 37 36 35 36 36 37
19 31 26 22 15 17 32 42 43 43 35 38 46 42 42 47 42 45 52 56 59 61 65 67 67 64 62 62 61 59 59 55 51 50 48 48 48 47 46 44 42 43 45 43 42 42 43 44 43
24 23 27 14 12 19 26 35 41 46 51 47 47 49 53 45 45 52 54 59 66 65 67 68 70 69 70 70 67 62 58 56 55 53 52 50 50 49 50 49 48 49 49 50 49 50 50 50 49
32 38 25 20 7 18 22 41 50 43 59 59 55 56 55 54 57 52 58 65 65 71 73 74 72 72 74 72 70 68 66 67 66 66 62 58 54 53 52 53 54 54 54 54 55 54 54 55 51
37 36 16 15 13 20 22 19 33 31 42 52 67 56 64 63 63 71 58 66 71 74 73 77 75 74 75 76 78 78 76 75 70 67 63 59 58 58 58 56 57 58 59 59 58 59 59 60 64
27 23 33 34 30 22 26 17 25 33 39 46 53 57 65 66 66 76 82 79 80 75 81 77 77 77 75 79 81 82 81 76 73 70 66 62 58 55 57 57 57 59 59 60 61 63 64 65 68
17 6 13 26 28 29 55 36 33 39 36 35 47 56 62 66 72 78 79 82 85 83 82 83 83 82 80 79 78 82 80 78 80 75 72 63 59 58 54 53 51 50 50 52 53 53 57 61 63
32 27 9 14 14 19 34 33 52 15 42 38 44 59 56 59 57 70 81 82 87 83 83 87 90 91 90 89 87 83 81 76 77 73 68 63 61 56 50 48 46 46 47 48 48 50 51 52 53
43 41 12 24 12 36 19 21 38 37 66 68 47 47 53 50 53 66 70 79 85 88 91 90 93 95 91 87 89 88 83 83 78 73 69 64 61 56 51 48 48 51 50 50 52 53 51 47 49
18 36 48 16 0 9 16 40 45 10 18 37 59 55 65 63 56 68 72 73 75 80 91 94 100 102 96 90 84 82 85 84 81 74 73 70 65 62 56 54 55 52 53 53 53 54 51 51 54
36 12 22 16 17 21 17 44 30 30 41 33 28 48 66 71 82 83 73 71 77 75 64 81 90 99 105 101 93 85 81 77 73 74 75 73 70 65 61 59 57 57 55 53 52 55 52 52 53
31 32 17 8 27 20 34 31 38 37 29 35 42 70 81 83 86 79 83 91 69 70 58 70 78 86 94 101 97 90 82 74 68 69 70 70 65 63 61 59 57 55 55 55 54 54 48 50 51
38 36 42 19 18 12 30 48 5 24 37 45 60 80 88 84 73 76 82 81 76 83 79 77 76 77 76 85 90 86 80 74 71 70 66 63 61 59 57 56 53 54 51 47 45 46 47 49 50
Wind_Direction_850mb
345 348 343 353 251 279 93 132 357 152 159 100 138 215 333 360 351 27 152 165 161 161 158 151 151 152 153 152 152 147 125 122 98 74 81 107 115 115 108 104 107 95 102 91 94 99 95 97 95
347 347 348 358 309 344 64 134 191 144 97 127 138 176 248 60 53 148 150 164 163 163 159 161 159 162 164 161 157 145 123 92 100 94 104 114 120 115 112 112 109 102 104 99 97 99 97 94 92
348 343 333 44 49 34 26 189 142 132 131 161 160 350 35 19 159 156 165 166 167 165 168 168 169 176 173 166 160 163 136 86 90 107 117 120 121 117 118 119 103 108 111 101 96 95 94 96 96
349 343 40 294 359 103 31 19 153 152 190 191 168 198 268 184 161 167 168 167 166 168 170 177 175 176 174 167 170 186 180 146 126 130 130 123 126 129 127 120 119 112 110 95 96 101 101 96 92
355 332 305 283 351 85 239 247 172 178 155 190 192 186 205 210 182 178 175 173 170 171 176 177 176 176 177 180 189 198 170 155 129 135 138 135 134 130 129 122 118 114 111 105 106 103 102 102 102
341 331 260 271 311 357 296 166 168 192 190 172 212 197 191 196 174 179 182 174 173 182 185 181 180 185 188 194 191 189 151 154 130 131 140 139 131 127 124 126 119 119 123 112 109 109 107 103 102
42 321 290 285 291 294 61 152 198 200 201 210 198 216 210 195 180 187 183 181 181 188 191 196 186 189 187 184 192 181 159 161 159 140 146 144 136 128 126 128 130 127 121 119 113 109 111 113 107
121 287 265 253 284 286 113 177 189 210 235 207 190 231 217 201 183 179 179 185 191 194 199 201 190 187 185 192 196 182 183 173 168 167 162 161 149 137 127 124 127 124 124 125 122 120 118 119 117
166 215 254 251 242 285 32 227 187 224 210 199 204 223 219 189 184 179 182 191 197 199 199 200 194 192 193 191 202 204 189 190 183 196 196 167 160 154 153 150 140 139 142 138 131 128 126 130 133
175 197 231 220 286 295 308 280 302 232 222 228 227 226 218 196 193 189 190 194 199 199 200 199 197 196 199 201 196 201 198 186 187 197 206 190 173 171 164 155 157 157 154 152 150 151 155 170 208
168 227 193 153 134 350 317 298 258 257 237 245 239 220 216 203 199 200 199 200 201 199 201 203 199 198 199 202 196 199 202 197 194 198 193 189 188 183 182 179 179 181 178 177 178 187 204 230 245
195 199 186 213 199 241 290 305 271 246 256 261 252 219 220 211 206 205 206 207 204 205 203 205 205 201 201 199 205 204 206 207 208 204 200 195 198 198 196 193 196 202 202 201 207 218 236 253 263
229 206 216 228 239 224 260 260 282 271 268 255 268 235 222 219 214 212 213 215 209 209 205 209 209 206 205 203 204 207 209 210 210 209 204 203 201 203 203 204 207 211 213 218 228 244 257 265 269
213 221 219 220 232 253 199 263 287 264 298 244 245 241 225 223 220 214 217 219 217 213 213 212 211 211 212 209 208 210 210 211 211 210 210 210 210 210 211 213 216 220 223 228 234 246 258 267 273
218 207 232 232 239 246 221 240 240 261 264 261 241 232 229 226 221 224 224 221 217 217 216 219 218 216 216 214 212 214 216 214 215 215 214 213 213 216 217 220 223 226 230 235 241 252 261 268 274
211 233 231 223 210 203 246 255 248 243 249 254 245 235 233 229 232 228 225 223 219 218 219 221 223 225 225 221 218 218 220 220 221 219 219 218 218 219 223 227 227 230 234 239 246 253 261 267 272
208 234 225 227 207 183 211 256 247 225 232 251 246 237 232 232 232 230 225 222 221 221 220 223 225 227 228 228 226 225 226 227 227 226 224 222 225 227 229 231 234 238 241 244 249 256 262 268 274
208 228 221 219 196 206 215 250 243 222 196 248 255 250 240 237 244 239 230 226 223 223 224 225 227 228 229 231 230 230 230 230 232 230 230 230 230 232 235 237 238 243 248 251 254 260 267 270 274
284 222 237 220 193 208 238 247 249 253 248 247 252 253 247 242 246 243 238 232 228 226 226 226 227 228 229 230 230 230 232 233 236 235 234 234 234 236 239 242 244 246 251 257 260 263 265 272 278
225 233 225 229 193 227 252 251 260 252 249 243 248 254 252 253 250 245 243 237 234 232 230 229 230 229 230 232 234 236 241 242 243 243 242 241 243 243 244 247 250 251 255 258 261 264 269 273 273
221 230 227 246 199 252 270 265 258 250 247 244 240 244 253 251 249 246 250 246 241 237 233 230 230 230 232 233 236 237 239 241 241 241 242 242 243 246 248 250 253 256 259 261 264 265 268 271 272
221 212 239 242 232 250 195 276 247 246 231 236 239 231 244 248 248 252 242 245 244 243 238 235 232 232 233 233 234 236 239 242 245 246 249 248 247 249 251 255 257 258 262 264 266 269 269 269 269
235 216 222 235 246 269 241 265 264 240 236 236 231 230 237 241 242 249 251 248 244 242 241 240 237 234 233 234 236 237 240 244 246 249 249 248 250 250 252 254 256 259 263 266 266 267 269 268 270
166 128 219 235 239 244 244 239 250 234 234 244 240 236 237 237 237 246 250 249 246 242 236 236 238 238 237 237 238 238 241 242 243 246 250 251 249 248 248 253 256 260 261 264 267 268 268 269 271
207 201 227 224 224 244 230 232 238 260 231 241 247 248 241 242 236 243 245 245 241 241 237 234 233 236 240 242 241 241 242 243 245 247 249 251 251 250 250 251 254 258 262 264 265 265 268 268 269
205 199 201 218 217 234 161 228 242 233 250 251 249 254 255 253 245 247 249 248 249 244 240 237 237 237 237 240 240 242 241 241 243 244 248 250 250 250 250 253 256 259 261 263 263 263 264 265 267
185 216 231 279 88 287 220 245 265 219 247 233 243 248 252 252 252 253 252 252 255 253 245 243 241 240 237 238 239 241 237 239 241 244 246 248 249 250 253 257 259 261 259 258 259 261 261 263 265
238 179 217 216 204 230 225 242 244 197 217 227 241 252 260 260 257 251 255 257 257 255 250 244 243 242 240 240 239 239 238 237 242 244 244 244 246 249 252 255 257 257 257 257 257 259 260 262 266
212 228 221 261 230 239 252 251 247 244 226 229 233 241 248 254 255 256 257 262 260 243 258 253 245 243 237 236 237 234 233 235 238 239 241 242 244 246 248 250 252 255 256 256 256 258 260 257 260
231 226 223 256 237 232 250 261 125 226 233 225 226 228 240 244 254 260 260 261 266 260 264 248 242 239 236 234 234 231 230 231 234 238 240 239 239 240 242 244 247 250 253 258 256 258 258 260 262